Location: Bon Acre
(42.6442°N, 73.5758°W)
Time: 02:41:20
(UTC+00:00)

SL-08 R/B - Pass Details

Date: 13 March 2026
Orbit: 946 x 992 km, 83.0° (Epoch: 13 April)

Event Time Altitude Azimuth Distance (km) Brightness Sun altitude
Exits shadow 01:41:15 25° 27° (NNE) 1,824 5.9 -30.1°
Drops below altitude 10° 01:43:44 10° 17° (NNE) 2,676 6.9 -30.5°
Sets 01:46:16 0° 13° (NNE) 3,624 7.7 -30.9°
